Location: Regensburg
(49.0167°N, 12.1000°E)
Time: 10:19:25
(UTC+01:00)

ISS - Visible Passes

Search period start: 21 January 2021 00:00
Search period end: 31 January 2021 00:00
Orbit: 418 x 419 km, 51.6° (Epoch: 21 January)

Date Brightness Start Highest point End Pass type
(mag) Time Alt. Az. Time Alt. Az. Time Alt. Az.
21 Jan -2.1 17:54:54 10° SSW 17:57:34 22° SE 17:59:24 15° E visible
21 Jan -1.7 19:30:40 10° WSW 19:32:21 27° WSW 19:32:21 27° WSW visible
22 Jan -3.8 18:42:59 10° WSW 18:46:19 67° SSE 18:46:41 60° ESE visible
23 Jan -3.2 17:55:22 10° SW 17:58:36 47° SSE 18:00:58 17° E visible
23 Jan -1.8 19:32:03 10° W 19:33:55 29° W 19:33:55 29° W visible
24 Jan -3.7 18:44:13 10° W 18:47:35 72° NNW 18:48:08 56° NE visible
25 Jan -3.8 17:56:24 10° WSW 17:59:47 90° ESE 18:02:20 16° ENE visible
25 Jan -1.8 19:33:27 10° WNW 19:35:17 28° WNW 19:35:17 28° WNW visible
26 Jan -3.4 18:45:35 10° W 18:48:54 54° N 18:49:27 47° NNE visible
27 Jan -3.5 17:57:42 10° W 18:01:02 60° N 18:03:37 16° ENE visible
27 Jan -1.8 19:34:45 10° WNW 19:36:33 28° WNW 19:36:33 28° WNW visible
28 Jan -3.5 18:46:54 10° WNW 18:50:13 53° N 18:50:43 47° NE visible
29 Jan -3.4 17:59:01 10° WNW 18:02:20 52° N 18:04:54 15° ENE visible
29 Jan -2.0 19:35:55 10° WNW 19:37:51 31° WNW 19:37:51 31° WNW visible
30 Jan -3.8 18:48:05 10° WNW 18:51:27 69° NNE 18:52:04 53° ENE visible
30 Jan -0.1 20:25:01 10° W 20:25:01 10° W 20:25:01 10° W visible
